Погода в Андроново

Россия / Вологодская область     59°24′06″N   37°15′42″E
темп.,
°C
ветер,
м/с
пор.,
м/с
влажн.,
%
обл.,
%
осадки,
мм/ч
давл.,
гПа
погр.,
м
10 апреля, сб
сб1000:00+1ю6167984 0.0 1017690
03:00+1ю61682100 0.0 1017640
06:00+1ю51585100 0.0 1017646
09:00+3ю61581100 0.0 1018797
12:00+6ююз61576100 0.0 10181476
15:00+7ююз71472100 0.1 10171697
18:00+7ю6147091 0.2 10171270
21:00+5ю61572100 0.2 1016820
11 апреля, вс
вс1100:00+4зюз61284100 0.1 1018913
03:00+1юз389799 0.9 1021339
06:00−1юз2109852 0.0 1024324
09:00+3зюз36724 0.0 1026518
12:00+6зюз45520 0.0 10281035
15:00+8зюз34460 0.0 10291345
18:00+7ююз23604 0.0 103079
21:00+2ююв227149 0.0 103216
12 апреля, пн
пн1200:00+1юв238935 0.0 103337
03:00+1юв259420 0.0 103388
06:00+3юв379394 0.0 1032176
09:00+7ююв488569 0.0 1032334
12:00+12ю486548 0.0 1031626
15:00+14ю58565 0.0 10291178
18:00+11юв49695 0.0 1028439
21:00+8ююв41477100 0.0 1027414
13 апреля, вт
вт1300:00+7ююв41281100 0.0 1026461
03:00+6ююв3990100 1.4 1024341
06:00+5ююв3994100 0.0 1023289
09:00+8ю31091100 0.0 1022423
12:00+12юз4875100 0.0 1021942
15:00+10зюз2391100 0.6 1020109
18:00+9зюз1399100 3.0 1019117
21:00+9ююз2699100 5.0 1019201
14 апреля, ср
ср1400:00+8ююз2499100 0.2 1018132
03:00+8юз1199100 1.0 101729
06:00+7зсз2598100 1.6 1017161
09:00+7сз357768 1.8 1019446
12:00+9сз456573 0.0 1020849
15:00+8сз455574 0.0 1021835
18:00+7ссз3559100 0.0 1022887
21:00+4ссв3774100 0.0 1023359